Tracking 28799 objects as of 18-Apr-2024
HD Live streaming from Space Station
objects crossing your sky now

SL-8 R/B

Track SL-8 R/B now!
10-day predictions
SL-8 R/B is classified as:


NORAD ID: 21938
Int'l Code: 1992-020B
Perigee: 965.0 km
Apogee: 1,009.7 km
Inclination: 82.9 °
Period: 104.7 minutes
Semi major axis: 7358 km
RCS: 4.1798 m2 (large)
Launch date: April 15, 1992
Source: Commonwealth of Independent States (former USSR) (CIS)
Launch site: PLESETSK MISSILE AND SPACE COMPLEX (PKMTR)

Note: This is a ROCKET BODY
Your satellite tracking list
Your tracking list is empty




NASA's NSSDC Master Catalog

Two Line Element Set (TLE):
1 21938U 92020B   24108.93823647  .00000295  00000-0  29030-3 0  9996
2 21938  82.9277 306.7543 0030400  66.9601  44.1974 13.75402375606179
Source of the keplerian elements: AFSPC